Waarnemingen

Advertentie
Mijn weer
St-Nazaire, Frankrijk (7217): temperatuur & dauwpunt: 14.10.2018 15:00:00 - 20.10.2018 15:00:00 (CEST)St-Nazaire, Frankrijk (7217): temperatuur 5cm: 14.10.2018 15:00:00 - 20.10.2018 15:00:00 (CEST)St-Nazaire, Frankrijk (7217): temperatuur -20cm: 14.10.2018 15:00:00 - 20.10.2018 15:00:00 (CEST)St-Nazaire, Frankrijk (7217): windsnelheid & windstoten: 14.10.2018 15:00:00 - 20.10.2018 15:00:00 (CEST)St-Nazaire, Frankrijk (7217): windrichting: 14.10.2018 15:00:00 - 20.10.2018 15:00:00 (CEST)St-Nazaire, Frankrijk (7217): luchtdruk: 14.10.2018 15:00:00 - 20.10.2018 15:00:00 (CEST)St-Nazaire, Frankrijk (7217): zicht: 14.10.2018 15:00:00 - 20.10.2018 15:00:00 (CEST)St-Nazaire, Frankrijk (7217): neerslag: 14.10.2018 15:00:00 - 20.10.2018 15:00:00 (CEST)
Datum & Tijd tt [°C] td [°C] tt 5cm [°C] tt -20cm [°C] ff [km/u] ff [kn] fx [km/u] fx [kn] dd ppp [hPa] vv [km] rr [mm]
20.10.2018 15:00:00 19,0 11,6 22,2 15,6 22 12 31 17 ONO 1028,3 9 0,0
20.10.2018 14:00:00 18,0 11,5 20,7 15,7 21 12 35 19 NO 1029,0 8 0,0
20.10.2018 13:00:00 16,9 10,7 19,0 15,7 23 12 36 19 NO 1029,5 7 0,0
20.10.2018 12:00:00 15,2 10,6 16,4 15,8 16 9 32 17 NO 1029,7 7 0,0
20.10.2018 11:00:00 12,9 9,3 13,4 15,9 22 12 35 19 NO 1029,1 7 0,0
20.10.2018 10:00:00 10,9 8,5 9,4 16,0 14 7 28 15 NO 1028,6 11 0,0
20.10.2018 09:00:00 9,7 8,0 8,3 16,0 13 7 22 12 NO 1027,9 10 0,0
20.10.2018 08:00:00 10,2 8,3 8,8 16,1 12 7 23 12 NO 1027,6 10 0,0
20.10.2018 07:00:00 10,3 8,7 9,1 16,1 16 8 33 18 NNO 1027,5 8 0,0
20.10.2018 06:00:00 10,6 9,0 9,6 16,1 21 11 34 18 NNO 1027,1 7 0,0
20.10.2018 05:00:00 10,8 9,2 9,8 16,2 16 9 27 15 NO 1026,5 7 0,0
20.10.2018 04:00:00 11,3 9,6 10,1 16,2 15 8 26 14 NNO 1026,6 8 0,0
20.10.2018 03:00:00 11,9 9,8 10,8 16,2 16 9 33 18 NNO 1026,4 10 0,0
20.10.2018 02:00:00 12,4 10,1 11,3 16,3 21 12 34 18 NNO 1026,5 11 0,0
20.10.2018 01:00:00 12,5 10,2 11,3 16,3 16 8 26 14 NNO 1026,3 10 0,0
20.10.2018 00:00:00 12,6 10,7 10,2 16,2 14 8 21 11 NNO 1026,2 8 0,0
19.10.2018 23:00:00 13,3 11,0 11,5 16,2 11 6 19 10 NNO 1025,6 10 0,0
19.10.2018 22:00:00 14,0 11,2 12,1 16,2 11 6 24 13 NNO 1025,0 11 0,0
19.10.2018 21:00:00 15,0 11,6 12,6 16,2 15 8 23 12 NNO 1024,8 12 0,0
19.10.2018 20:00:00 15,4 11,8 12,5 16,1 9 5 26 14 N 1024,3 12 0,0
19.10.2018 19:00:00 17,8 11,8 16,5 16,1 16 9 31 17 NNO 1023,5 16 0,0
19.10.2018 18:00:00 19,2 11,7 20,6 16,0 18 10 32 17 NNO 1022,8 17 0,0
19.10.2018 17:00:00 20,0 12,0 23,1 16,0 19 10 29 16 NNO 1022,4 13 0,0
19.10.2018 16:00:00 20,0 12,2 24,1 16,0 20 11 35 19 NNO 1022,4 10 0,0
19.10.2018 15:00:00 19,6 12,8 23,7 16,0 21 11 34 18 NNO 1022,5 8 0,0
19.10.2018 14:00:00 19,3 12,8 22,3 16,0 18 10 29 16 NNO 1022,6 7 0,0
19.10.2018 13:00:00 17,6 12,7 20,3 16,0 17 9 27 15 NO 1023,0 8 0,0
19.10.2018 12:00:00 15,6 11,8 17,2 16,1 15 8 25 14 NNO 1023,2 9 0,0
19.10.2018 11:00:00 13,5 10,8 14,2 16,2 15 8 25 13 NO 1023,3 8 0,0
19.10.2018 10:00:00 11,5 10,2 10,1 16,2 13 7 25 14 NNO 1023,0 7 0,0
19.10.2018 09:00:00 10,7 9,6 8,7 16,3 13 7 22 12 NNO 1022,1 6 0,0
19.10.2018 08:00:00 10,5 9,4 8,7 16,4 8 5 19 11 N 1021,9 6 0,0
19.10.2018 07:00:00 10,5 9,4 7,6 16,4 9 5 18 10 N 1021,5 6 0,0
19.10.2018 06:00:00 10,3 9,1 7,7 16,4 8 4 12 7 N 1021,4 7 0,0
19.10.2018 05:00:00 11,0 9,3 8,0 16,5 7 4 13 7 N 1021,5 11 0,0
19.10.2018 04:00:00 11,9 10,0 10,4 16,5 11 6 20 11 NNO 1021,4 13 0,0
19.10.2018 03:00:00 11,9 10,0 10,3 16,5 12 6 21 11 N 1021,5 14 0,0
19.10.2018 02:00:00 12,6 10,3 11,3 16,5 11 6 21 12 NNO 1021,4 18 0,0
19.10.2018 01:00:00 13,3 10,7 11,9 16,6 13 7 26 14 NNO 1021,5 23 0,0
19.10.2018 00:00:00 14,3 10,9 12,9 16,6 15 8 26 14 NNO 1021,4 33 0,0
18.10.2018 23:00:00 14,8 11,0 13,0 16,5 13 7 27 14 NO 1021,4 46 0,0
18.10.2018 22:00:00 15,4 11,2 13,8 16,5 13 7 24 13 NO 1021,0 55 0,0
18.10.2018 21:00:00 16,2 11,4 14,3 16,5 12 6 25 13 NO 1020,7 60 0,0
18.10.2018 20:00:00 17,1 11,1 15,3 16,4 16 8 25 13 NNO 1019,9 60 0,0
18.10.2018 19:00:00 19,0 11,3 17,7 16,4 18 10 36 19 NNO 1019,4 60 0,0
18.10.2018 18:00:00 20,8 10,9 21,9 16,3 22 12 40 22 NNO 1019,1 60 0,0
18.10.2018 17:00:00 21,6 11,0 24,0 16,3 27 15 42 23 NNO 1018,9 19 0,0
18.10.2018 16:00:00 22,7 11,4 25,9 16,2 22 12 37 20 NNO 1019,1 16 0,0
18.10.2018 15:00:00 22,1 11,8 25,2 16,2 24 13 37 20 NO 1019,5 15 0,0
18.10.2018 14:00:00 21,0 13,4 20,0 16,2 21 12 37 20 NO 1020,0 14 0,0
18.10.2018 13:00:00 18,1 13,4 17,7 16,3 19 10 35 19 NO 1020,7 9 0,0
18.10.2018 12:00:00 16,6 13,1 16,5 16,3 17 9 35 19 NO 1021,1 8 0,0
18.10.2018 11:00:00 15,8 12,7 15,3 16,3 18 10 35 19 NO 1021,2 10 0,0
18.10.2018 10:00:00 14,9 12,6 13,9 16,3 18 10 30 16 NNO 1020,5 10 0,0
18.10.2018 09:00:00 14,4 12,6 12,9 16,4 16 9 29 16 NO 1020,0 8 0,0
18.10.2018 08:00:00 14,1 12,3 12,9 16,4 14 8 31 17 NNO 1019,6 8 0,0
18.10.2018 07:00:00 14,4 12,4 13,0 16,4 15 8 28 15 NNO 1019,3 9 0,0
18.10.2018 06:00:00 14,7 12,6 13,5 16,4 13 7 21 12 NNO 1018,9 12 0,0
18.10.2018 05:00:00 14,2 12,4 12,5 16,5 10 5 20 11 NNO 1018,8 15 0,0
18.10.2018 04:00:00 13,5 11,9 11,9 16,5 12 6 19 10 NNO 1018,7 17 0,0
18.10.2018 03:00:00 13,3 11,5 12,2 16,5 11 6 22 12 NNO 1018,8 20 0,0
18.10.2018 02:00:00 13,8 11,5 12,6 16,5 11 6 23 13 NNO 1019,0 24 0,0
18.10.2018 01:00:00 14,5 11,5 13,7 16,5 14 7 25 14 NNO 1019,0 29 0,0
18.10.2018 00:00:00 14,4 11,2 13,5 16,5 11 6 22 12 NNO 1019,3 34 0,0
17.10.2018 23:00:00 14,9 11,7 14,4 16,4 13 7 23 13 NNO 1019,2 31 0,0
17.10.2018 22:00:00 15,4 11,4 14,4 16,4 14 8 23 12 NNO 1019,0 33 0,0
17.10.2018 21:00:00 15,7 10,7 14,6 16,3 11 6 19 10 NNO 1018,6 60 0,0
17.10.2018 20:00:00 15,9 10,2 14,3 16,3 9 5 15 8 N 1018,1 59 0,0
17.10.2018 19:00:00 16,7 9,6 15,1 16,2 12 6 22 12 N 1017,4 60 0,0
17.10.2018 18:00:00 18,3 9,6 17,3 16,1 13 7 21 12 NNO 1016,8 58 0,0
17.10.2018 17:00:00 19,0 8,9 22,9 16,1 10 5 21 12 ONO 1017,2 58 0,0
17.10.2018 16:00:00 18,6 9,1 22,4 16,1 9 5 22 12 NO 1017,3 19 0,0
17.10.2018 15:00:00 18,0 10,4 19,9 16,1 7 4 16 8 ONO 1017,7 18 0,0
17.10.2018 14:00:00 17,8 11,1 22,6 16,1 8 4 23 12 ZO 1018,3 48 0,0
17.10.2018 13:00:00 16,9 16,3 21,6 16,1 9 5 18 10 ZO 1018,9 20 0,0
17.10.2018 12:00:00 14,1 13,9 16,0 16,2 3 2 12 7 OZO 1019,4 18 0,0
17.10.2018 11:00:00 12,4 12,2 11,6 16,3 10 5 13 7 OZO 1019,4 1,9 0,2
17.10.2018 10:00:00 10,1 9,9 8,4 16,4 6 4 10 5 ONO 1019,5 0,1 0,0
17.10.2018 09:00:00 8,2 8,1 7,6 16,5 8 4 11 6 ONO 1019,2 0,1 0,0
17.10.2018 08:00:00 7,8 7,7 7,2 16,5 6 3 10 5 ONO 1019,3 0,1 0,0
17.10.2018 07:00:00 7,0 6,9 5,6 16,7 9 5 11 6 ONO 1019,3 0,1 0,0
17.10.2018 06:00:00 7,6 7,3 5,7 16,8 4 2 7 4 NO 1019,1 0,1 0,0
17.10.2018 05:00:00 6,6 6,2 4,3 16,8 4 2 7 4 OZO 1019,2 0,1 0,0
17.10.2018 04:00:00 6,1 5,7 4,5 17,0 6 4 8 4 O 1019,5 0,1 0,0
17.10.2018 03:00:00 8,9 8,4 3,7 17,0 5 3 7 4 ONO 1019,8 0,1 0,0
17.10.2018 02:00:00 7,0 6,4 3,6 17,1 0 0 4 2 N 1020,0 0,2 0,0
17.10.2018 01:00:00 7,4 6,7 4,2 17,1 2 1 3 2 NNO 1020,0 0,2 0,0
17.10.2018 00:00:00 9,0 8,1 5,2 17,2 2 1 5 3 WZW 1020,1 0,3 0,0
16.10.2018 23:00:00 10,4 9,3 5,8 17,2 5 3 8 5 W 1020,3 20 0,0
16.10.2018 22:00:00 11,0 8,9 7,2 17,2 5 3 14 7 W 1020,1 37 0,0
16.10.2018 21:00:00 13,1 10,3 10,4 17,2 8 5 13 7 W 1019,9 36 0,0
16.10.2018 20:00:00 13,5 10,1 10,3 17,1 9 5 13 7 W 1019,6 57 0,0
16.10.2018 19:00:00 15,1 9,9 13,5 17,1 11 6 19 10 W 1019,3 20 0,0
16.10.2018 18:00:00 17,0 10,6 19,3 17,1 14 7 23 13 WZW 1019,1 60 0,0
16.10.2018 17:00:00 17,4 10,5 20,3 17,0 18 10 31 17 ZW 1018,8 60 0,0
16.10.2018 16:00:00 17,4 11,0 18,5 17,0 17 9 29 16 ZW 1018,6 53 0,0
16.10.2018 15:00:00 18,4 11,0 23,3 17,0 17 9 25 13 ZZW 1018,2 60 0,0
16.10.2018 14:00:00 18,0 12,4 19,6 17,0 8 5 24 13 W 1018,3 60 0,0
16.10.2018 13:00:00 17,0 13,1 16,6 17,0 12 7 20 11 W 1018,5 58 0,0
16.10.2018 12:00:00 16,4 12,9 14,9 17,0 11 6 17 9 W 1018,0 60 0,0
16.10.2018 11:00:00 15,0 13,5 14,8 17,0 9 5 19 10 W 1017,4 14 0,0
16.10.2018 10:00:00 15,4 14,1 14,7 17,1 9 5 17 9 WZW 1016,9 19 0,0
16.10.2018 09:00:00 15,1 13,8 14,2 17,1 9 5 14 8 ZZW 1016,1 18 0,0
16.10.2018 08:00:00 14,6 13,8 13,6 17,1 10 5 16 8 ZZW 1015,5 56 0,0
16.10.2018 07:00:00 14,6 13,8 14,0 17,1 5 3 11 6 Z 1014,9 35 0,0
16.10.2018 06:00:00 14,8 14,0 14,2 17,2 6 4 11 6 W 1014,5 38 0,0
16.10.2018 05:00:00 14,5 13,7 14,0 17,2 8 5 10 5 WZW 1014,1 19 0,0
16.10.2018 04:00:00 14,6 13,5 14,2 17,2 3 2 11 6 N 1013,8 20 0,0
16.10.2018 03:00:00 14,6 13,3 14,1 17,2 8 4 12 7 WNW 1013,6 25 0,0
16.10.2018 02:00:00 14,5 13,4 13,8 17,2 8 4 19 11 W 1013,0 25 0,0
16.10.2018 01:00:00 14,2 13,4 13,6 17,2 10 6 15 8 WNW 1012,9 19 0,0
16.10.2018 00:00:00 14,0 13,2 13,5 17,3 4 2 16 8 WNW 1012,7 18 0,0
15.10.2018 23:00:00 13,9 12,9 12,7 17,3 11 6 17 9 NNW 1012,5 26 0,0
15.10.2018 22:00:00 14,2 12,9 13,7 17,3 9 5 16 9 WNW 1011,8 34 0,0
15.10.2018 21:00:00 14,8 13,3 14,4 17,3 8 4 14 8 NW 1011,3 50 0,0
15.10.2018 20:00:00 15,1 13,3 14,7 17,2 8 4 18 10 NNW 1011,0 19 0,0
15.10.2018 19:00:00 15,2 13,0 15,1 17,2 10 5 19 10 WNW 1010,3 60 0,0
15.10.2018 18:00:00 16,0 12,9 16,4 17,2 12 6 19 11 WNW 1009,8 60 0,0
15.10.2018 17:00:00 16,2 13,3 17,7 17,2 8 5 20 11 N 1009,7 55 0,0
15.10.2018 16:00:00 15,7 13,2 15,5 17,2 11 6 19 10 WNW 1009,3 55 0,0
15.10.2018 15:00:00 15,3 12,6 15,1 17,2 7 4 12 7 WZW 1009,9 60 0,0
15.10.2018 14:00:00 15,5 12,4 15,1 17,2 3 2 12 6 ZZO 1009,4 20 0,0
15.10.2018 13:00:00 14,9 13,3 14,7 17,2 9 5 13 7 W 1009,4 60 0,0
15.10.2018 12:00:00 14,2 13,4 13,9 17,3 7 4 11 6 W 1009,1 60 0,2
15.10.2018 11:00:00 13,9 13,3 13,6 17,3 8 5 16 9 ZW 1008,6 4,1 0,0
15.10.2018 10:00:00 13,3 12,8 12,8 17,3 6 4 18 10 W 1008,1 2,0 0,8
15.10.2018 09:00:00 13,1 12,6 12,6 17,4 10 5 21 11 W 1007,4 8 0,6
15.10.2018 08:00:00 13,3 12,8 12,8 17,4 14 7 23 13 WZW 1007,0 5 0,4
15.10.2018 07:00:00 13,2 12,7 12,7 17,4 10 5 24 13 WZW 1006,8 8 0,0
15.10.2018 06:00:00 13,3 12,8 13,0 17,5 12 7 25 13 WZW 1006,2 6 0,2
15.10.2018 05:00:00 13,4 12,9 13,0 17,5 14 8 27 15 WZW 1006,1 14 0,0
15.10.2018 04:00:00 13,6 13,1 13,2 17,5 16 9 31 17 WZW 1005,8 17 0,0
15.10.2018 03:00:00 13,8 13,3 13,4 17,6 23 12 33 18 WZW 1005,8 20 0,0
15.10.2018 02:00:00 14,5 14,0 14,1 17,6 20 11 29 15 WZW 1005,1 7 0,2
15.10.2018 01:00:00 14,9 14,1 14,6 17,6 10 5 15 8 W 1004,3 3,8 0,0
15.10.2018 00:00:00 15,3 14,3 15,0 17,6 5 3 12 6 ZO 1004,0 15 0,0
14.10.2018 23:00:00 15,5 14,4 15,2 17,6 10 5 16 9 OZO 1003,9 16 0,0
14.10.2018 22:00:00 16,5 14,7 16,1 17,5 12 6 21 11 ZZO 1003,9 38 0,0
14.10.2018 21:00:00 16,6 14,6 16,0 17,5 14 8 22 12 ZZO 1003,8 60 0,0
14.10.2018 20:00:00 16,4 14,6 16,2 17,5 10 6 19 10 ONO 1003,3 52 0,0
14.10.2018 19:00:00 16,7 15,4 17,0 17,4 3 2 26 14 NNO 1002,7 20 0,0
14.10.2018 18:00:00 16,9 15,6 17,1 17,4 17 9 29 16 ZW 1003,0 19 0,0
14.10.2018 17:00:00 19,1 16,7 19,4 17,4 18 10 26 14 ZZW 1002,1 14 0,0
14.10.2018 16:00:00 20,0 16,8 20,7 17,3 17 9 31 17 Z 1002,0 20 0,0
14.10.2018 15:00:00 19,8 17,0 19,7 17,3 27 15 44 24 ZZO 1001,8 20 0,0

tt = temperatuur
td = dauwpunt
tt 5cm = temperatuur 5cm
tt -20cm = temperatuur -20cm
ff = windsnelheid
fx = windstoten
dd = windrichting
ppp = luchtdruk
vv = zicht
rr = neerslag

Weerstations in de omgeving